軌道要素
Epoch 2012 Mar. 14.0 TT = JDT 2456000.5
T 2012 Mar. 21.69081 TT MPC
q 1.7871809 (2000.0) P Q
n 0.06350694 Peri. 131.19270 +0.14941549 -0.98513686
a 6.2218841 Node 310.00918 +0.87084680 +0.17169925
e 0.7127589 Incl. 6.35171 +0.46829570 -0.00497343
P 15.5
From 91 observations 2011 Sept. 4-2012 Apr. 11, mean residual 0".5.
|